Home   Weather   Boulogne-Billancourt   Past weeks

Flag for France Past Weather in Boulogne-Billancourt, Île-de-France, France — Yesterday and Last 2 Weeks

Now
57 °F

Clear.


Feels Like: 57 °F
Forecast: 56 / 74 °F
Wind: 5 mph from Northwest

Location: Paris-Orly

Current Time: Jul 26, 2017 at 1:03:32 am

Latest Report: Jul 26, 2017 at 12:30 am


Visibility: 10 mi

Pressure: 29.95 "Hg

Humidity: 72%

Dew Point: 48 °F

Location of Boulogne-BillancourtLocation

Past Weather in Boulogne-Billancourt — Graph

°F

Boulogne-Billancourt Temperature Yesterday

Maximum temperature yesterday: 73 °F (at 4:30 pm)
Minimum temperature yesterday: 59 °F (at 6:30 am)
Average temperature yesterday: 65 °F

High & Low Weather Summary for the Past Weeks

 TemperatureHumidityPressure
High93 °F (Jul 18, 5:00 pm)94% (Jul 11, 5:00 am)30.27 "Hg (Jul 11, 5:00 am)
Low54 °F (Jul 15, 6:00 am)32% (Jul 21, 3:00 pm)29.77 "Hg (Jul 18, 10:00 pm)
Average69 °F63%30.00 "Hg
* Reported Jul 11 12:00 am — Jul 26 12:00 am, Boulogne-Billancourt. Weather by CustomWeather, © 2017

Note: Actual official high and low records may vary slightly from our data, if they occured in-between our weather recording intervals... More about our weather records

Advertising

Boulogne-Billancourt Weather History for the Previous 24 Hours

Scroll right to see more
 ConditionsComfort  
Time TempWeatherWind HumidityBarometerVisibility
12:00 am
Wed, Jul 26
59 °FClear.6 mph72%29.95 "Hg10 mi
11:30 pm
Tue, Jul 25
64 °FClear.6 mph60%29.95 "Hg10 mi
11:00 pm64 °FClear.5 mph60%29.95 "Hg10 mi
10:34 pm66 °FClear.7 mph56%29.95 "Hg10 mi
10:00 pm66 °FPassing clouds.8 mph56%29.95 "HgN/A
9:30 pm68 °FScattered clouds.9 mph53%29.95 "HgN/A
9:00 pm68 °FScattered clouds.10 mph49%29.95 "HgN/A
8:30 pm70 °FScattered clouds.12 mph50%29.95 "HgN/A
8:00 pm70 °FScattered clouds.10 mph50%29.95 "HgN/A
7:30 pm72 °FScattered clouds.12 mph47%29.95 "HgN/A
7:00 pm72 °FPartly sunny.14 mph50%29.95 "HgN/A
6:30 pm72 °FPartly sunny.12 mph50%29.95 "HgN/A
6:00 pm72 °FPartly sunny.12 mph50%29.95 "HgN/A
5:30 pm72 °FPartly sunny.10 mph53%29.95 "HgN/A
5:00 pm72 °FBroken clouds.10 mph50%29.95 "HgN/A
4:30 pm73 °FBroken clouds.13 mph53%29.95 "HgN/A
3:30 pm70 °FBroken clouds.10 mph57%29.95 "HgN/A
3:00 pm68 °FBroken clouds.8 mph64%29.98 "HgN/A
2:30 pm68 °FBroken clouds.12 mph64%29.98 "HgN/A
2:00 pm66 °FBroken clouds.10 mph64%29.98 "HgN/A
1:30 pm66 °FPartly sunny.8 mph68%29.98 "HgN/A
1:00 pm66 °FPartly sunny.12 mph64%29.98 "HgN/A
12:30 pm66 °FBroken clouds.12 mph64%29.98 "HgN/A
12:00 pm64 °FBroken clouds.9 mph68%29.98 "HgN/A
11:30 am64 °FBroken clouds.9 mph68%29.98 "HgN/A
11:00 am64 °FBroken clouds.9 mph68%29.98 "HgN/A
10:30 am64 °FBroken clouds.9 mph73%29.98 "HgN/A
10:00 am63 °FPartly sunny.8 mph77%29.98 "HgN/A
9:30 am61 °FLight rain. Broken clouds.8 mph83%29.98 "HgN/A
9:00 am61 °FLight rain. Partly sunny.10 mph83%29.98 "HgN/A
8:30 am61 °FLight rain. Partly sunny.9 mph83%29.98 "HgN/A
8:00 am61 °FBroken clouds.8 mph83%29.98 "HgN/A
7:30 am61 °FLight rain. Partly sunny.8 mph83%29.98 "HgN/A
7:00 am61 °FPartly sunny.5 mph83%29.98 "HgN/A
6:30 am59 °FPartly sunny.5 mph88%29.98 "Hg5 mi
6:00 am61 °FPartly cloudy.6 mph83%29.98 "HgN/A
5:30 am61 °FPassing clouds.7 mph83%29.98 "HgN/A
5:00 am61 °FPartly cloudy.7 mph83%29.98 "HgN/A
4:30 am61 °FPartly cloudy.8 mph83%29.98 "HgN/A
4:00 am61 °FPassing clouds.6 mph83%29.98 "HgN/A
3:30 am61 °FPartly cloudy.7 mph77%30.01 "HgN/A
3:00 am61 °FPartly cloudy.7 mph77%30.01 "HgN/A
2:30 am61 °FPartly cloudy.9 mph83%30.01 "HgN/A
2:00 am61 °FPassing clouds.13 mph83%30.01 "HgN/A
1:30 am61 °FPassing clouds.8 mph83%30.01 "HgN/A
1:00 am61 °FPartly cloudy.8 mph83%30.01 "HgN/A
Weather by CustomWeather, © 2017

See weather overviewHow to use our weather pages